AirNav   ProFlight Series 2 Aviation Headset
 
 823 users online  

FD67 Lee Memorial Hospital Emergency Heliport
Fort Myers, Florida, USA

GOING TO FORT MYERS?


FAA INFORMATION EFFECTIVE 16 JULY 2020

Location

FAA Identifier: FD67
Lat/Long: 26-37-43.5000N 081-52-29.0000W
26-37.725000N 081-52.483333W
26.6287500,-81.8747222
(estimated)
Elevation: 12 ft. / 4 m (estimated)
Variation: 02W (1985)
Time zone: UTC -4 (UTC -5 during Standard Time)
Zip code: 33901

Heliport Operations

Heliport use: Private use, MEDICAL.
Activation date: 05/1986
Control tower: no
ARTCC: MIAMI CENTER
FSS: MIAMI FLIGHT SERVICE STATION
Attendance: CONTINUOUS
Wind indicator: yes
Segmented circle: yes
Lights: FOR PERIMETER LGTS CALL 813-334-5120.

Heliport Communications

WX ASOS at FMY (2.6 nm S): 123.725 (239-936-2318)
WX ASOS at RSW (8 nm SE): PHONE 239-561-0966
WX ASOS at PGD (18 nm N): 135.675 (941-639-0076)

Nearby radio navigation aids

VOR radial/distance  VOR name  Freq  Var
RSWr320/8.0LEE COUNTY VORTAC111.8002W
PGDr166/(18.4)PUNTA GORDA VOR110.2006W
LBVr244/28.5LA BELLE VORTAC110.4001E
CYYr353/29.0CYPRESS VOR/DME108.6003W

 
NDB name  Hdg/Dist  Freq  Var  ID
CALOO034/7.934103WFM ..-. --

Heliport Services

Runway Information

Helipad H1

Dimensions: 60 x 60 ft. / 18 x 18 m
Surface: asphalt, in good condition
Runway edge lights: PERI
Latitude: 26-37.725000N
Longitude: 081-52.483333W
Elevation: 12.0 ft.
Traffic pattern: leftleft
Markings: basic, in good condition

Heliport Ownership and Management from official FAA records

Ownership: Publicly-owned
Owner: LEE MEMORIAL HOSPITAL
2776 CLEVELAND AVE
FORT MYERS, FL 33901
Phone 239-343-2622
HOSPITAL BOARD OF DIRECTORS OF LEE COUNTY.
Manager: ROD ALLEN
LEE MEMORIAL HOSPITAL, 4211 METRO PARKWAY
FORT MYERS, FL 33916
Phone 239-343-8545
EMERGENCY DEPT.

Additional Remarks

A52-H1 20 FT LGT POLES 53 FT NORTH OF HELIPAD.
FOR CD CTC FORT MYERS APCH AT 239-768-1377, WHEN APCH CLSD CTC MIAMI ARTCC AT 305-716-1731.

Instrument Procedures

There are no published instrument procedures at FD67.

Some nearby airports with instrument procedures:

KFMY - Page Field Airport (3 nm S)
KRSW - Southwest Florida International Airport (8 nm SE)
KPGD - Punta Gorda Airport (18 nm N)
X14 - La Belle Municipal Airport (25 nm E)
KIMM - Immokalee Regional Airport (28 nm SE)
 
Loc | Ops | Rwys | IFR | FBO | Links
Com | Nav | Svcs | Stats | Notes

Reliance Aviation
AirBoss

 
Area around FD67 (Lee Memorial Hospital Emergency Heliport)
 
Road maps at: MapQuest Bing Google
 
Aerial photo
No photo
 
Sectional chart

 
Airport distance calculator
Flying to Lee Memorial Hospital Emergency Heliport? Find the distance to fly.

From to FD67

Sunrise and sunset
Times for 13-Aug-2020
 Local
(UTC-4)
 Zulu
(UTC)
Morning civil twilight06:3610:36
Sunrise07:0011:00
Sunset20:0400:04
Evening civil twilight20:2900:29

Current date and time
Zulu (UTC)  13-Aug-2020 04:05:07
Local (UTC-4)  13-Aug-2020 00:05:07
 
METAR
KFMY 
3nm S 
130353Z AUTO 04003KT 10SM CLR 27/24 A3003 RMK AO2 LTG DSNT S SLP171 T02670239
KRSW 
8nm SE 
130353Z 02005KT 10SM CLR 27/24 A3004 RMK AO2 LTG DSNT S SLP170 T02720244
KPGD 
19nm N 
130353Z AUTO 00000KT 10SM CLR 25/24 A3005 RMK AO2 SLP175 T02500239
TAF
KFMY 
3nm S 
121722Z 1218/1318 14007KT P6SM VCTS SCT040CB BKN250 FM122100 24006KT P6SM VCTS SCT040CB BKN250 FM130000 VRB03KT P6SM FEW030 SCT250 FM131700 14006KT P6SM VCTS SCT030CB BKN250
KRSW 
8nm SE 
121722Z 1218/1318 14006KT P6SM VCTS SCT040CB BKN250 FM122100 17007KT P6SM VCTS SCT040CB BKN250 FM130000 VRB03KT P6SM FEW030 SCT250 FM131700 14006KT P6SM VCTS SCT030CB BKN250
KPGD 
19nm N 
122213Z 1222/1318 19009KT P6SM VCTS SCT040CB BKN250 TEMPO 1222/1224 VRB15G25KT 2SM +TSRA BKN040CB FM130200 VRB03KT P6SM FEW030 SCT250 FM131700 15005KT P6SM VCTS SCT030CB BKN250
NOTAMs
Click for the latest NOTAMs
NOTAMs are issued by the DoD/FAA and will open in a separate window not controlled by AirNav.

 

 
 

Would you like to see your business listed on this page?

 If your business provides an interesting product or service to pilots, flight crews, aircraft, or users of the Lee Memorial Hospital Emergency Heliport, you should consider listing it here.  To start the listing process, click on the button below
 
Add a business
 

Other Pages about Lee Memorial Hospital Emergency Heliport

Update a link
 
Copyright © AirNav, LLC. All rights reserved. Privacy Policy  Contact